FW9925 Weather Reports


time (UTC)temp
C
wind
direction
speed
KPH
gust
KPH
rain 1hr
cm
rain 24hr
cm
rain mn
cm
humidity
%
barometer
mb
20260510083044 6 45 1.6 9.7 0.00 0.33 0.00 65 1009.6
20260510083029 7 306 8.0 19.3 0.00 0.43 0.00 64 1010.6
20260510082511 7 360 4.8 14.5 0.00 0.43 0.00 64 1010.7
20260510082011 7 327 4.8 17.7 0.00 0.43 0.00 64 1010.6
20260510081543 6 70 4.8 8.0 0.00 0.33 0.00 65 1009.5
20260510081527 7 276 4.8 19.3 0.00 0.43 0.00 64 1010.7
20260510081010 7 305 3.2 19.3 0.00 0.43 0.00 64 1010.5
20260510080510 7 295 4.8 19.3 0.00 0.43 0.00 64 1010.4
20260510080042 6 39 3.2 9.7 0.00 0.33 0.00 64 1009.5
20260510080028 7 292 3.2 14.5 0.00 0.43 0.00 64 1010.4
20260510075511 7 269 3.2 14.5 0.00 0.43 0.00 63 1010.3
20260510075012 7 286 3.2 19.3 0.00 0.43 0.00 63 1010.3
20260510074543 7 13 1.6 14.5 0.00 0.33 0.00 63 1009.4
20260510074527 8 294 6.4 19.3 0.00 0.43 0.00 62 1010.3
20260510074010 8 0 1.6 17.7 0.00 0.43 0.00 62 1010.3
20260510073508 8 325 3.2 22.5 0.00 0.43 0.00 61 1010.1
20260510073047 7 39 1.6 12.9 0.00 0.33 0.00 61 1009.1
20260510073028 8 13 4.8 22.5 0.00 0.43 0.00 60 1010.1
20260510072509 8 340 6.4 22.5 0.00 0.43 0.00 60 1010.1
20260510072016 8 244 3.2 16.1 0.00 0.43 0.00 60 1010.0
20260510071550 8 43 4.8 11.3 0.00 0.33 0.00 58 1009.0
20260510071537 9 253 3.2 16.1 0.00 0.43 0.00 60 1010.0
20260510071012 9 306 4.8 16.1 0.00 0.43 0.00 59 1009.9
20260510070508 9 347 4.8 19.3 0.00 0.43 0.00 59 1009.9
20260510070046 8 27 0.0 12.9 0.00 0.33 0.00 59 1008.8
20260510070026 9 342 4.8 19.3 0.00 0.43 0.00 58 1009.8
20260510065509 9 250 1.6 25.7 0.00 0.43 0.00 59 1009.7
20260510065009 9 322 4.8 25.7 0.00 0.43 0.00 57 1009.5
20260510064543 9 239 1.6 6.4 0.00 0.33 0.00 58 1008.7
20260510064528 10 295 3.2 20.9 0.00 0.43 0.00 57 1009.6
20260510064012 10 309 6.4 20.9 0.00 0.43 0.00 57 1009.5
20260510063516 10 330 9.7 20.9 0.00 0.43 0.00 57 1009.6
20260510063041 9 48 0.0 4.8 0.00 0.33 0.00 61 1008.5
20260510063029 10 0 4.8 14.5 0.00 0.43 0.00 58 1009.6
20260510062514 10 19 4.8 14.5 0.00 0.43 0.00 58 1009.4
20260510062011 10 312 4.8 12.9 0.00 0.43 0.00 59 1009.3
20260510061542 9 300 0.0 3.2 0.00 0.33 0.00 62 1008.5
20260510061013 10 294 6.4 19.3 0.00 0.43 0.00 58 1009.5
20260510060509 10 260 3.2 12.9 0.00 0.43 0.00 59 1009.3
20260510060036 9 291 0.0 3.2 0.00 0.33 0.00 64 1008.3
20260510060029 10 323 3.2 6.4 0.00 0.43 0.00 60 1009.2
20260510055511 10 265 0.0 12.9 0.00 0.43 0.00 60 1009.1
20260510055011 10 304 1.6 12.9 0.00 0.43 0.00 60 1009.1
20260510054535 10 0 0.0 4.8 0.00 0.33 0.00 63 1008.0
20260510054528 10 306 1.6 8.0 0.00 0.43 0.00 61 1009.0
20260510054015 10 0 0.0 6.4 0.00 0.43 0.00 61 1008.9
20260510053514 10 277 1.6 6.4 0.00 0.43 0.00 60 1008.7
20260510053051 10 0 0.0 6.4 0.00 0.33 0.00 63 1007.9
20260510053030 10 0 1.6 8.0 0.00 0.43 0.00 61 1008.7
20260510052513 10 320 1.6 8.0 0.00 0.43 0.00 60 1008.7
20260510052011 10 259 0.0 8.0 0.00 0.43 0.00 61 1008.6
20260510051547 10 15 0.0 4.8 0.00 0.33 0.00 63 1007.8
20260510051531 10 311 3.2 9.7 0.00 0.43 0.00 61 1008.6
20260510051008 10 301 1.6 11.3 0.00 0.43 0.00 63 1008.5
20260510050512 10 321 3.2 11.3 0.00 0.43 0.00 63 1008.6
20260510050041 10 0 0.0 3.2 0.00 0.33 0.00 62 1007.8
20260510050027 10 284 1.6 4.8 0.00 0.43 0.00 63 1008.6
20260510045512 10 0 0.0 9.7 0.00 0.43 0.00 63 1008.5
20260510045013 10 317 0.0 11.3 0.00 0.43 0.00 63 1008.3
20260510044540 10 10 1.6 6.4 0.00 0.33 0.00 63 1007.5
20260510044528 10 288 0.0 11.3 0.00 0.43 0.00 62 1008.2
20260510044010 10 275 1.6 8.0 0.00 0.43 0.00 62 1007.9
20260510043513 10 0 1.6 12.9 0.00 0.43 0.00 61 1007.9
20260510043045 10 26 0.0 6.4 0.00 0.33 0.00 64 1007.3
20260510043028 11 331 3.2 12.9 0.00 0.43 0.00 61 1007.8
20260510042513 11 261 3.2 9.7 0.00 0.43 0.00 61 1007.7
20260510042013 11 286 1.6 12.9 0.00 0.43 0.00 62 1007.7
20260510041538 10 25 0.0 1.6 0.00 0.33 0.00 67 1007.0
20260510041527 11 23 3.2 14.5 0.00 0.43 0.00 62 1007.5
20260510041015 11 5 3.2 17.7 0.00 0.43 0.00 62 1007.6
20260510040512 11 341 4.8 17.7 0.00 0.43 0.00 62 1007.6
20260510040046 10 32 0.0 3.2 0.00 0.33 0.00 65 1006.9
20260510040030 11 312 3.2 14.5 0.00 0.43 0.00 62 1007.4
20260510035514 11 307 4.8 17.7 0.00 0.43 0.43 61 1007.4
20260510035013 11 332 3.2 19.3 0.00 0.43 0.43 61 1007.3
20260510034541 10 25 0.0 8.0 0.00 0.33 0.33 66 1006.7
20260510034529 11 38 6.4 19.3 0.00 0.43 0.43 62 1007.2
20260510034013 11 5 6.4 14.5 0.00 0.43 0.43 62 1007.2
20260510033511 11 313 4.8 17.7 0.00 0.43 0.43 63 1007.3
20260510033040 10 30 4.8 11.3 0.00 0.33 0.33 66 1006.5
20260510033029 11 292 3.2 17.7 0.00 0.43 0.43 65 1007.2
20260510032513 11 327 4.8 17.7 0.00 0.43 0.43 66 1006.8
20260510032015 11 360 6.4 17.7 0.00 0.43 0.43 70 1006.9
20260510031546 11 29 3.2 9.7 0.00 0.33 0.33 68 1006.2
20260510031542 11 360 3.2 19.3 0.00 0.43 0.43 73 1006.9
20260510031013 11 315 6.4 19.3 0.00 0.43 0.43 75 1006.7
20260510030513 11 332 4.8 16.1 0.00 0.43 0.43 80 1007.0
20260510030040 11 34 6.4 14.5 0.00 0.33 0.33 70 1006.4
20260510030030 12 317 0.0 4.8 0.00 0.43 0.43 83 1007.0
20260510025512 12 317 0.0 8.0 0.00 0.43 0.43 83 1006.9
20260510025009 12 333 1.6 14.5 0.00 0.43 0.43 83 1007.0
20260510024541 11 31 0.0 3.2 0.00 0.33 0.33 88 1006.2
20260510024537 12 0 0.0 14.5 0.00 0.43 0.43 83 1006.8
20260510024013 12 318 4.8 14.5 0.00 0.43 0.43 82 1006.9
20260510023512 12 273 4.8 14.5 0.00 0.43 0.43 81 1007.0
20260510023041 11 0 0.0 0.0 0.00 0.33 0.33 89 1006.3
20260510023030 12 291 3.2 14.5 0.00 0.43 0.43 81 1006.8
20260510022517 12 321 3.2 14.5 0.00 0.41 0.41 80 1006.7
20260510022011 12 321 1.6 9.7 0.00 0.41 0.41 79 1006.6
20260510021547 11 344 0.0 1.6 0.00 0.30 0.30 89 1005.9
20260510021529 12 243 1.6 9.7 0.00 0.41 0.41 79 1006.5
20260510021011 12 296 1.6 8.0 0.00 0.41 0.41 80 1006.2
20260510020509 12 281 3.2 8.0 0.00 0.41 0.41 80 1006.0
20260510020042 11 0 0.0 1.6 0.00 0.30 0.30 89 1005.6
20260510020028 12 242 3.2 11.3 0.00 0.41 0.41 81 1006.3
20260510015509 12 261 4.8 11.3 0.00 0.41 0.41 82 1006.1
20260510015011 12 241 3.2 11.3 0.00 0.41 0.41 83 1006.1
20260510014536 11 0 0.0 1.6 0.00 0.30 0.30 89 1005.2
20260510014534 11 262 0.0 4.8 0.00 0.41 0.41 84 1005.8
20260510014012 11 0 0.0 1.6 0.00 0.41 0.41 83 1005.8
20260510013512 11 0 0.0 1.6 0.00 0.41 0.41 82 1005.6
20260510013049 11 260 0.0 1.6 0.00 0.30 0.30 89 1004.9
20260510013029 12 0 0.0 3.2 0.00 0.41 0.41 82 1005.4
20260510012511 12 0 0.0 3.2 0.00 0.41 0.41 81 1005.1
20260510012009 12 0 0.0 4.8 0.00 0.41 0.41 81 1005.1
20260510011544 11 0 0.0 1.6 0.00 0.30 0.30 88 1004.5
20260510011536 12 0 0.0 4.8 0.00 0.41 0.41 81 1004.9
20260510011012 12 227 0.0 4.8 0.00 0.41 0.41 80 1004.9
20260510010511 12 0 0.0 8.0 0.00 0.41 0.41 80 1004.8
20260510010041 11 0 1.6 4.8 0.05 0.30 0.30 87 1004.0
20260510010031 12 220 1.6 8.0 0.00 0.41 0.41 80 1004.6
20260510005511 12 247 3.2 8.0 0.00 0.41 0.41 81 1004.7
20260510005012 12 0 0.0 4.8 0.00 0.41 0.41 82 1004.6
20260510004545 11 264 0.0 3.2 0.08 0.30 0.30 87 1003.8
20260510004528 12 0 0.0 4.8 0.00 0.41 0.41 81 1004.6
20260510004013 12 216 1.6 4.8 0.00 0.41 0.41 81 1004.5
20260510003511 12 225 1.6 4.8 0.00 0.41 0.41 81 1004.4
20260510003055 12 236 0.0 12.9 0.00 0.41 0.41 80 1004.4
20260510003043 12 260 3.2 9.7 0.08 0.30 0.30 86 1003.5
20260510002513 12 0 0.0 12.9 0.00 0.41 0.41 80 1004.4
20260510002011 12 254 4.8 12.9 0.00 0.41 0.41 80 1004.6
20260510001543 11 260 1.6 3.2 0.05 0.28 0.28 86 1003.7
20260510001531 11 262 1.6 6.4 0.00 0.41 0.41 80 1004.5
20260510001014 11 0 0.0 14.5 0.00 0.41 0.41 79 1004.3
20260510000513 11 0 0.0 14.5 0.00 0.41 0.41 78 1004.3
20260510000048 11 0 3.2 9.7 0.00 0.25 0.25 85 1003.4
20260510000028 11 320 3.2 14.5 0.00 0.41 0.41 78 1004.4
20260509235512 12 336 3.2 12.9 0.00 0.41 0.41 77 1004.1
20260509235018 12 288 3.2 14.5 0.00 0.41 0.41 77 1004.0
20260509234535 11 0 1.6 11.3 0.00 0.23 0.23 81 1003.3
20260509234530 12 252 1.6 16.1 0.00 0.41 0.41 76 1003.7
20260509234015 12 0 3.2 20.9 0.00 0.41 0.41 75 1003.6
20260509233511 12 235 11.3 24.1 0.00 0.41 0.41 75 1003.4
20260509233035 11 213 6.4 16.1 0.00 0.23 0.23 81 1002.7
20260509233029 12 219 8.0 24.1 0.00 0.41 0.41 75 1003.4
20260509232511 12 241 9.7 24.1 0.00 0.41 0.41 74 1003.3
20260509232010 12 275 9.7 24.1 0.00 0.41 0.41 74 1003.2
20260509231544 12 233 9.7 22.5 0.00 0.23 0.23 79 1002.3
20260509231532 12 242 9.7 24.1 0.00 0.41 0.41 74 1003.2
20260509231015 12 282 12.9 24.1 0.03 0.41 0.41 74 1003.2
20260509230511 12 242 9.7 22.5 0.08 0.41 0.41 75 1003.1
20260509230041 12 221 8.0 24.1 0.03 0.23 0.23 78 1002.3
20260509230034 12 239 12.9 22.5 0.20 0.41 0.41 74 1003.1
20260509225512 12 240 9.7 20.9 0.33 0.41 0.41 75 1003.3
20260509225010 12 234 9.7 19.3 0.36 0.41 0.41 75 1003.3
20260509224540 12 255 8.0 17.7 0.20 0.23 0.23 81 1002.1
20260509224529 12 232 6.4 17.7 0.41 0.41 0.41 77 1003.1
20260509224010 11 232 8.0 22.5 0.41 0.41 0.41 79 1003.2
20260509223511 11 238 9.7 22.5 0.41 0.41 0.41 81 1003.2
20260509223039 12 242 6.4 14.5 0.23 0.23 0.23 85 1002.3
20260509223030 11 211 9.7 22.5 0.41 0.41 0.41 83 1003.2
20260509222510 11 207 9.7 27.4 0.41 0.41 0.41 82 1003.3
20260509222013 12 200 14.5 29.0 0.41 0.41 0.41 83 1003.3
20260509221538 12 209 9.7 29.0 0.23 0.23 0.23 85 1002.2
20260509221530 12 248 14.5 29.0 0.38 0.38 0.38 83 1002.6
20260509221010 12 243 12.9 29.0 0.36 0.36 0.36 82 1003.2
20260509220514 13 213 8.0 20.9 0.30 0.30 0.30 82 1003.8
20260509220045 13 253 12.9 22.5 0.18 0.18 0.18 82 1002.7
20260509220030 13 299 3.2 11.3 0.15 0.15 0.15 81 1004.4
20260509215512 13 215 3.2 12.9 0.08 0.08 0.08 80 1003.8
20260509215013 13 249 4.8 19.3 0.00 0.00 0.00 78 1003.4
20260509214602 15 265 8.0 19.3 0.00 0.00 0.00 77 1002.6
20260509214530 13 210 9.7 19.3 0.00 0.00 0.00 77 1003.4
20260509214011 13 229 6.4 12.9 0.00 0.00 0.00 75 1003.4
20260509213516 13 177 3.2 14.5 0.00 0.00 0.00 74 1003.3
20260509213040 15 226 3.2 11.3 0.00 0.00 0.00 74 1002.3
20260509213026 13 221 9.7 14.5 0.00 0.00 0.00 74 1003.3
20260509212511 13 254 6.4 14.5 0.00 0.00 0.00 74 1003.4
20260509212013 13 191 4.8 14.5 0.00 0.00 0.00 74 1003.6
20260509211542 15 248 8.0 14.5 0.00 0.00 0.00 72 1002.6
20260509211528 13 210 6.4 20.9 0.00 0.00 0.00 73 1003.5
20260509211012 13 248 8.0 20.9 0.00 0.00 0.00 73 1003.4
20260509210514 13 273 11.3 20.9 0.00 0.00 0.00 73 1003.3
20260509210043 15 167 9.7 20.9 0.00 0.00 0.00 72 1002.2
20260509210028 13 249 4.8 16.1 0.00 0.00 0.00 73 1003.2
20260509205511 13 224 8.0 17.7 0.00 0.00 0.00 73 1003.0
20260509205011 13 230 8.0 17.7 0.00 0.00 0.00 72 1003.0
20260509204537 14 225 4.8 20.9 0.00 0.00 0.00 72 1002.0
20260509204530 13 165 4.8 14.5 0.00 0.00 0.00 73 1003.1
20260509204016 13 161 4.8 12.9 0.00 0.00 0.00 73 1003.1
20260509203511 13 224 4.8 12.9 0.00 0.00 0.00 73 1003.0
20260509203053 13 231 6.4 12.9 0.00 0.00 0.00 72 1002.4
20260509203034 13 195 3.2 14.5 0.00 0.00 0.00 74 1003.2
20260509202510 13 217 6.4 14.5 0.00 0.00 0.00 74 1003.3
20260509202011 12 0 1.6 8.0 0.00 0.00 0.00 73 1003.4
20260509201541 13 240 4.8 14.5 0.00 0.00 0.00 73 1002.5
20260509201530 12 159 1.6 11.3 0.00 0.00 0.00 74 1003.3
20260509201012 12 136 1.6 11.3 0.00 0.00 0.00 74 1003.5
20260509200511 12 146 3.2 9.7 0.00 0.00 0.00 75 1003.8
20260509200041 13 189 4.8 12.9 0.00 0.00 0.00 73 1003.0
20260509200028 11 235 4.8 9.7 0.00 0.00 0.00 75 1003.8
20260509195513 11 134 1.6 9.7 0.00 0.00 0.00 76 1004.0
20260509195010 11 134 3.2 9.7 0.00 0.00 0.00 76 1003.8
20260509194541 13 153 3.2 14.5 0.00 0.00 0.00 73 1003.0
20260509194535 11 153 1.6 12.9 0.00 0.00 0.00 77 1003.8
20260509194015 11 210 4.8 12.9 0.00 0.00 0.00 76 1004.0
20260509193513 11 174 3.2 11.3 0.00 0.00 0.00 77 1003.9
20260509193038 13 220 4.8 14.5 0.00 0.00 0.00 72 1003.2
20260509193030 11 160 3.2 11.3 0.00 0.00 0.00 78 1004.0
20260509192511 10 140 4.8 11.3 0.00 0.00 0.00 77 1004.1
20260509192011 10 137 3.2 11.3 0.00 0.00 0.00 77 1004.3
20260509191551 14 276 6.4 16.1 0.00 0.00 0.00 70 1003.5
20260509191528 10 141 4.8 12.9 0.00 0.00 0.00 76 1004.4
20260509191015 11 139 4.8 12.9 0.00 0.00 0.00 76 1004.5
20260509190513 11 185 3.2 12.9 0.00 0.00 0.00 77 1004.4
20260509190048 15 246 4.8 14.5 0.00 0.00 0.00 69 1003.4
20260509190029 10 200 3.2 14.5 0.00 0.00 0.00 77 1004.4
20260509185513 10 128 8.0 14.5 0.00 0.00 0.00 76 1004.6
20260509185015 10 123 4.8 12.9 0.00 0.00 0.00 77 1004.5
20260509184549 15 229 6.4 16.1 0.00 0.00 0.00 69 1003.5
20260509184528 10 200 4.8 14.5 0.00 0.00 0.00 77 1004.5
20260509184012 10 153 4.8 14.5 0.00 0.00 0.00 78 1004.6
20260509183514 10 141 6.4 17.7 0.00 0.00 0.00 78 1004.7
20260509183050 16 225 8.0 17.7 0.00 0.00 0.00 69 1003.6
20260509183028 10 152 6.4 20.9 0.00 0.00 0.00 77 1004.7
20260509182514 11 148 8.0 20.9 0.00 0.00 0.00 77 1004.9
20260509182015 11 108 4.8 20.9 0.00 0.00 0.00 77 1004.8
20260509181541 11 115 11.3 20.9 0.00 0.00 0.00 76 1004.8
20260509181014 12 137 9.7 19.3 0.00 0.00 0.00 75 1004.6
20260509180518 12 114 8.0 19.3 0.00 0.00 0.00 76 1004.7
20260509180040 16 153 8.0 19.3 0.00 0.00 0.00 67 1003.7
20260509180028 12 136 6.4 17.7 0.00 0.00 0.00 75 1004.8
20260509175513 12 147 8.0 22.5 0.00 0.00 0.00 76 1004.9
20260509175014 12 136 9.7 22.5 0.00 0.00 0.00 75 1004.9
20260509174558 16 205 9.7 20.9 0.00 0.00 0.00 67 1003.9
20260509174526 12 165 9.7 22.5 0.00 0.00 0.00 75 1005.0
20260509174013 13 128 8.0 17.7 0.00 0.00 0.00 74 1005.2
20260509173512 13 157 11.3 17.7 0.00 0.00 0.00 74 1005.3
20260509173049 16 240 8.0 20.9 0.00 0.00 0.00 69 1004.4
20260509173028 13 167 6.4 16.1 0.00 0.00 0.00 75 1005.4
20260509172513 13 156 6.4 16.1 0.00 0.00 0.00 75 1005.4
20260509172013 13 136 6.4 14.5 0.00 0.00 0.00 71 1005.6
20260509171541 16 258 6.4 22.5 0.00 0.00 0.00 70 1004.7
20260509171528 14 142 1.6 12.9 0.00 0.00 0.00 73 1005.7
20260509171014 13 128 3.2 14.5 0.00 0.00 0.00 73 1005.7
20260509170512 13 90 4.8 14.5 0.00 0.00 0.00 74 1005.6
20260509170042 16 229 4.8 12.9 0.00 0.00 0.00 71 1004.8
20260509170030 13 184 3.2 12.9 0.00 0.00 0.00 76 1005.7
20260509165512 12 132 4.8 16.1 0.00 0.00 0.00 75 1005.7
20260509165011 12 168 8.0 16.1 0.00 0.00 0.00 75 1005.7
20260509164543 15 223 4.8 17.7 0.00 0.00 0.00 74 1004.8
20260509164530 13 98 6.4 14.5 0.00 0.00 0.00 74 1005.6
20260509164011 12 111 6.4 14.5 0.00 0.00 0.00 75 1005.6
20260509163517 13 131 4.8 14.5 0.00 0.00 0.00 74 1005.7
20260509163041 15 129 4.8 16.1 0.00 0.00 0.00 75 1005.0
20260509163032 12 113 4.8 14.5 0.00 0.00 0.00 74 1005.6
20260509162513 13 123 4.8 14.5 0.00 0.00 0.00 72 1005.9
20260509162015 13 107 6.4 14.5 0.00 0.00 0.00 72 1005.8
20260509161542 14 278 6.4 16.1 0.00 0.00 0.00 76 1005.2
20260509161534 13 163 4.8 14.5 0.00 0.00 0.00 73 1005.9
20260509161014 13 0 6.4 14.5 0.00 0.00 0.00 74 1005.9
20260509160516 13 139 4.8 14.5 0.00 0.00 0.00 74 1006.0
20260509160042 13 194 4.8 14.5 0.00 0.00 0.00 76 1005.3
20260509160030 13 109 4.8 12.9 0.00 0.00 0.00 75 1006.0
20260509155511 13 101 4.8 12.9 0.00 0.00 0.00 75 1006.2
20260509155011 12 0 1.6 12.9 0.00 0.00 0.00 77 1006.2
20260509154541 13 142 3.2 12.9 0.00 0.00 0.00 79 1005.6
20260509154530 12 131 4.8 12.9 0.00 0.00 0.00 76 1006.4
20260509154011 12 174 4.8 12.9 0.00 0.00 0.00 77 1006.5
20260509153510 12 153 3.2 9.7 0.00 0.00 0.00 76 1006.7
20260509153052 12 239 4.8 9.7 0.00 0.00 0.00 81 1005.8
20260509153028 12 198 3.2 9.7 0.00 0.00 0.00 75 1006.7
20260509152512 11 141 3.2 8.0 0.00 0.00 0.00 76 1006.8
20260509152012 11 0 1.6 8.0 0.00 0.00 0.00 78 1006.8
20260509151540 11 257 1.6 4.8 0.00 0.00 0.00 83 1006.0
20260509151530 11 180 3.2 8.0 0.00 0.00 0.00 79 1006.8
20260509151011 10 136 1.6 8.0 0.00 0.00 0.00 80 1006.8
20260509150512 10 0 0.0 11.3 0.00 0.00 0.00 81 1006.7
20260509150039 10 209 3.2 8.0 0.00 0.00 0.00 83 1005.9
20260509150028 9 136 4.8 11.3 0.00 0.00 0.00 80 1006.6
20260509145513 9 119 3.2 11.3 0.00 0.00 0.00 80 1006.7
20260509145012 9 0 1.6 12.9 0.00 0.00 0.00 80 1006.8
20260509144544 11 229 1.6 6.4 0.00 0.00 0.00 82 1006.0
20260509144536 9 130 4.8 12.9 0.00 0.00 0.00 80 1007.0
20260509144012 9 139 3.2 12.9 0.00 0.00 0.00 79 1007.1
20260509143512 9 202 3.2 9.7 0.00 0.00 0.00 79 1007.2
20260509143042 11 268 1.6 9.7 0.00 0.00 0.00 81 1006.2
20260509143030 9 192 3.2 9.7 0.00 0.00 0.00 78 1007.2
20260509142511 10 199 0.0 6.4 0.00 0.00 0.00 78 1007.2
20260509142013 9 206 1.6 6.4 0.00 0.00 0.00 79 1007.2
20260509141540 11 248 3.2 9.7 0.00 0.00 0.00 81 1006.2
20260509141528 9 144 1.6 8.0 0.00 0.00 0.00 78 1007.2
20260509141017 9 113 1.6 9.7 0.00 0.00 0.00 77 1007.2
20260509140512 9 123 3.2 9.7 0.00 0.00 0.00 77 1007.3
20260509140041 11 227 3.2 8.0 0.00 0.00 0.00 80 1006.2
20260509140030 9 128 3.2 9.7 0.00 0.00 0.00 77 1007.3
20260509135512 8 104 3.2 11.3 0.00 0.00 0.00 77 1007.3
20260509135013 8 126 3.2 11.3 0.00 0.00 0.00 77 1007.3
20260509134540 10 138 3.2 12.9 0.00 0.00 0.00 80 1006.4
20260509134529 8 138 3.2 9.7 0.00 0.00 0.00 77 1007.3
20260509134012 8 123 4.8 9.7 0.00 0.00 0.00 76 1007.4
20260509133512 8 159 3.2 9.7 0.00 0.00 0.00 76 1007.4
20260509133041 11 249 1.6 4.8 0.00 0.00 0.00 79 1006.5
20260509133030 8 157 4.8 11.3 0.00 0.00 0.00 76 1007.4
20260509132514 8 149 3.2 12.9 0.00 0.00 0.00 76 1007.5
20260509132013 8 140 4.8 12.9 0.00 0.00 0.00 76 1007.6
20260509131540 10 221 3.2 12.9 0.00 0.00 0.00 77 1006.6
20260509131528 8 141 4.8 12.9 0.00 0.00 0.00 75 1007.6
20260509131014 9 132 4.8 12.9 0.00 0.00 0.00 74 1007.6
20260509130510 9 150 3.2 11.3 0.00 0.00 0.00 73 1007.6
20260509130042 10 269 1.6 4.8 0.00 0.00 0.00 75 1006.6
20260509130032 9 138 4.8 12.9 0.00 0.00 0.00 72 1007.6
20260509125512 10 148 6.4 12.9 0.00 0.00 0.00 71 1007.5
20260509125012 10 122 4.8 12.9 0.00 0.00 0.00 71 1007.6
20260509124541 10 255 1.6 6.4 0.00 0.00 0.00 73 1006.7
20260509124527 10 184 3.2 11.3 0.00 0.00 0.00 71 1007.6
20260509124014 9 115 4.8 11.3 0.00 0.00 0.00 69 1007.5
20260509123512 9 87 3.2 9.7 0.00 0.00 0.00 69 1007.6
20260509123042 9 87 1.6 4.8 0.00 0.00 0.00 70 1006.6
20260509123027 9 124 1.6 9.7 0.00 0.00 0.00 69 1007.6
20260509122513 8 113 3.2 11.3 0.00 0.00 0.00 69 1007.7
20260509122012 8 97 3.2 11.3 0.00 0.00 0.00 68 1007.7
20260509121546 8 184 0.0 1.6 0.00 0.00 0.00 71 1006.8
20260509121530 8 155 3.2 9.7 0.00 0.00 0.00 68 1007.8
20260509121012 8 119 3.2 11.3 0.00 0.00 0.00 68 1007.8
20260509120511 8 144 3.2 11.3 0.00 0.00 0.00 68 1007.7
20260509120035 7 0 0.0 1.6 0.00 0.00 0.00 72 1006.6
20260509120030 8 129 1.6 6.4 0.00 0.00 0.00 69 1007.7
20260509115511 8 58 0.0 4.8 0.00 0.00 0.00 69 1007.7
20260509115014 7 0 1.6 6.4 0.00 0.00 0.00 69 1007.7
20260509114552 6 0 0.0 0.0 0.00 0.00 0.00 74 1006.7
20260509114528 7 94 1.6 6.4 0.00 0.00 0.00 69 1007.7
20260509114012 7 108 3.2 6.4 0.00 0.00 0.00 69 1007.7
20260509113510 7 86 1.6 6.4 0.00 0.00 0.00 70 1007.7
20260509113045 6 0 0.0 0.0 0.00 0.00 0.00 76 1006.7
20260509113033 7 63 0.0 4.8 0.00 0.00 0.00 72 1007.7
20260509112513 6 123 1.6 4.8 0.00 0.00 0.00 73 1007.8
20260509112010 6 117 0.0 4.8 0.00 0.00 0.00 74 1007.8
20260509111541 5 0 0.0 0.0 0.00 0.00 0.00 78 1006.8
20260509111011 6 0 0.0 3.2 0.00 0.00 0.00 78 1007.7
20260509110512 5 0 0.0 3.2 0.00 0.00 0.00 79 1007.7
20260509110042 5 0 0.0 0.0 0.00 0.00 0.00 80 1006.7
20260509105510 5 0 0.0 0.0 0.00 0.00 0.00 80 1007.9
20260509104544 4 0 0.0 0.0 0.00 0.00 0.00 81 1006.8
20260509104539 5 0 0.0 0.0 0.00 0.00 0.00 80 1007.9
20260509104009 5 0 0.0 0.0 0.00 0.00 0.00 81 1007.8
20260509103511 5 0 0.0 0.0 0.00 0.00 0.00 80 1007.9
20260509103052 4 0 0.0 0.0 0.00 0.00 0.00 82 1006.7
20260509103028 5 0 0.0 0.0 0.00 0.00 0.00 80 1007.8
20260509102510 5 0 0.0 0.0 0.00 0.00 0.00 80 1007.8
20260509101557 4 0 0.0 0.0 0.00 0.00 0.00 82 1006.9
20260509101537 5 0 0.0 1.6 0.00 0.00 0.00 80 1007.9
20260509101017 5 0 0.0 1.6 0.00 0.00 0.00 80 1007.9
20260509100512 5 0 0.0 0.0 0.00 0.00 0.00 80 1007.8
20260509100041 4 0 0.0 0.0 0.00 0.00 0.00 82 1006.9
20260509095513 5 0 0.0 0.0 0.00 0.00 0.00 80 1008.1
20260509094545 4 0 0.0 0.0 0.00 0.00 0.00 83 1007.1
20260509094011 5 0 0.0 0.0 0.00 0.00 0.00 80 1008.2
20260509093512 5 0 0.0 0.0 0.00 0.00 0.00 80 1008.2
20260509093042 5 0 0.0 0.0 0.00 0.00 0.00 80 1008.0
20260509092511 5 0 0.0 0.0 0.00 0.00 0.00 80 1008.0
20260509092011 5 0 0.0 0.0 0.00 0.00 0.00 80 1008.0
20260509091537 4 0 0.0 0.0 0.00 0.00 0.00 82 1007.1
20260509091535 5 0 0.0 0.0 0.00 0.00 0.00 80 1008.2
20260509091013 5 0 0.0 0.0 0.00 0.00 0.00 80 1008.1
20260509090512 5 0 0.0 0.0 0.00 0.00 0.00 80 1008.2
20260509090040 4 281 0.0 1.6 0.00 0.00 0.00 83 1007.1
20260509085515 5 0 0.0 0.0 0.00 0.00 0.00 79 1008.1
20260509085013 5 0 0.0 0.0 0.00 0.00 0.00 80 1008.1
20260509084547 4 0 0.0 0.0 0.00 0.00 0.00 82 1007.2
20260509084541 5 0 0.0 0.0 0.00 0.00 0.00 80 1008.2
20260509084011 5 0 0.0 0.0 0.00 0.00 0.00 80 1008.3
20260509083510 5 0 0.0 0.0 0.00 0.00 0.00 80 1008.3